Lapse_Rate
0.8 0.8 0.5 0.3 0.2 0.2 0.1 0.1 0.1 -0.1 -0.2 0.1 0.5 0.9 1.4 1.9 2.8 3.9 4.6 8.4 8.4 6.8 6.1 5.1 5.4 5.1 4.8 4.8 4.3 3.5 6.5 6.5 6.5 6.5 6.5 6.1 6.5 5.7 5.6 7.2 7.2 6.6 6.7 4.4 1.7
0.8 0.7 0.6 0.4 0.3 0.2 0.2 0.5 0.5 0.5 0.3 0.0 0.4 1.2 1.8 1.8 2.7 4.1 7.7 7.3 7.0 6.5 4.9 4.8 5.3 5.4 4.3 5.3 4.6 5.8 6.5 6.5 6.5 6.5 6.5 6.5 6.1 6.2 6.6 6.9 7.1 7.1 5.1 3.3 2.2
0.7 0.5 0.5 0.4 0.3 0.4 0.5 0.8 0.6 0.6 0.6 0.4 0.6 1.4 1.9 1.9 3.2 5.9 7.1 6.8 7.0 6.1 5.3 5.2 5.7 5.8 5.5 5.5 5.6 6.0 6.5 6.5 6.4 6.4 6.0 6.3 6.7 6.9 6.8 6.5 7.0 7.2 7.7 6.8 4.0
0.6 0.4 0.3 0.3 0.5 0.6 0.7 0.9 1.1 1.0 1.1 1.2 1.4 1.8 2.4 2.7 6.5 5.8 6.6 6.8 6.8 6.2 5.7 5.6 5.4 5.5 6.2 6.5 5.8 6.5 6.3 6.4 6.5 6.0 5.7 6.5 6.7 7.0 7.2 7.2 8.0 8.2 8.3 7.3 7.0
0.7 0.4 0.2 0.1 0.2 0.3 0.6 0.8 1.2 1.4 1.4 2.0 2.5 2.3 2.9 3.7 6.3 6.1 5.5 5.3 6.5 5.7 4.8 5.5 5.2 5.7 6.5 6.4 6.2 6.5 6.4 6.3 6.0 5.7 6.8 6.1 6.8 6.8 7.2 8.0 8.3 8.4 8.0 7.9 8.1
0.5 0.3 0.2 0.1 0.3 0.4 0.4 0.5 1.2 1.5 1.4 2.2 2.8 2.5 3.1 6.0 6.7 4.7 3.5 5.8 5.3 5.9 5.2 5.0 5.9 5.9 5.8 6.3 6.4 6.0 6.1 6.7 6.2 6.4 6.9 6.7 6.9 6.5 7.4 8.2 8.0 8.1 8.1 8.3 8.3
0.3 0.0 -0.0 -0.0 0.3 0.4 0.4 0.9 1.4 2.4 2.2 2.9 3.0 3.4 3.6 5.8 6.0 4.0 2.9 4.7 4.5 6.0 6.1 6.4 6.3 5.4 6.0 6.4 5.8 6.2 6.5 6.5 6.7 6.8 6.5 6.8 6.5 6.5 7.7 7.9 7.7 7.9 8.1 8.2 8.3
0.3 0.1 0.1 0.1 0.4 0.2 1.0 1.7 2.1 2.9 3.2 3.6 3.7 2.9 5.6 6.5 6.3 2.2 2.7 4.9 4.1 4.8 5.5 4.9 5.0 4.1 4.6 4.8 6.0 6.5 6.5 6.5 6.5 6.7 6.4 6.3 6.5 6.8 7.8 7.6 7.4 7.7 7.9 8.1 8.3
0.3 0.1 0.3 0.4 0.8 0.4 1.4 2.5 3.1 3.5 3.9 4.2 3.7 2.9 6.0 5.6 3.5 3.4 1.8 2.4 3.6 5.2 4.1 5.4 2.9 5.3 5.1 6.5 6.5 6.5 6.5 6.5 6.5 6.8 6.5 6.5 6.5 6.9 7.7 7.5 7.3 7.6 7.8 8.0 8.1
0.3 0.0 0.2 0.3 0.9 1.3 2.2 2.9 4.3 4.2 3.7 4.1 3.8 4.8 5.5 5.9 4.6 3.1 2.2 1.8 3.5 3.5 3.3 3.0 4.4 6.5 6.5 6.5 6.5 6.5 6.5 6.5 6.5 6.5 6.5 6.5 6.5 6.7 7.4 7.3 7.3 7.5 7.7 7.8 8.0
0.3 0.1 0.2 0.4 1.1 0.5 1.4 1.9 2.9 2.1 3.6 5.1 5.0 5.9 6.2 4.9 5.3 3.3 2.2 3.0 3.0 3.7 6.5 5.9 6.5 6.5 6.5 6.5 6.5 6.5 6.5 6.5 6.5 6.5 6.5 6.5 6.5 6.5 7.1 7.2 7.1 7.3 7.4 7.6 7.9
0.1 0.2 0.3 0.6 1.6 0.2 -1.2 -0.5 0.8 3.4 5.3 5.4 5.4 5.2 5.3 4.7 3.4 4.5 3.3 4.4 5.9 6.5 6.4 6.5 6.5 6.5 6.5 6.5 6.5 6.5 6.5 6.5 6.5 6.5 6.5 6.5 6.5 6.5 6.8 7.0 7.2 7.3 7.4 7.5 7.5
0.1 0.3 0.3 0.3 1.1 -0.5 -1.4 -0.1 0.7 2.0 4.7 6.2 5.4 5.3 5.4 5.1 5.9 5.5 4.4 5.7 6.3 6.5 6.5 6.5 6.5 6.6 6.5 6.5 6.5 6.5 6.5 6.5 6.5 6.5 6.5 6.5 6.5 6.5 6.6 7.1 7.4 7.6 7.7 7.8 7.5
0.2 0.4 0.5 1.0 1.2 -0.6 0.6 0.5 1.1 1.3 6.5 6.5 6.0 6.1 5.3 5.2 6.1 6.0 4.9 5.8 6.2 6.5 6.5 6.5 6.5 6.5 6.5 6.5 6.5 6.5 6.5 6.5 6.5 6.5 6.5 6.5 6.5 6.5 6.5 6.5 6.8 7.0 6.6 6.6 6.4
0.2 0.8 0.7 2.0 0.0 0.4 1.5 0.8 1.8 2.8 6.5 6.5 6.3 7.3 6.1 5.6 6.4 6.5 5.7 5.7 6.5 6.5 6.5 6.5 6.5 6.5 6.5 6.5 6.5 6.5 6.5 6.5 6.5 6.5 6.5 6.5 6.5 6.5 6.5 6.5 6.5 5.9 6.3 6.3 6.6
0.4 1.0 1.5 -0.5 -1.9 -0.0 0.1 1.1 2.7 6.5 6.5 6.5 6.2 6.4 6.3 6.1 6.3 6.2 5.6 4.8 6.0 6.5 6.4 6.5 6.5 6.5 6.5 6.5 6.5 6.5 6.5 6.5 6.5 6.5 6.5 6.5 6.5 6.5 6.5 6.5 6.5 6.4 6.7 6.3 6.0
0.1 1.1 1.1 -0.3 0.9 -1.0 -0.1 2.2 6.5 6.5 6.5 6.5 6.5 6.5 6.5 6.5 6.5 6.5 6.5 6.5 6.5 6.5 6.5 6.5 6.5 6.5 6.4 6.5 6.5 6.5 6.5 6.5 6.5 6.5 6.5 6.5 6.5 6.5 6.5 6.5 5.9 6.1 6.3 5.8 5.9
0.2 1.2 0.2 -1.4 -1.5 -1.1 0.2 6.1 6.5 6.5 6.5 6.5 6.5 6.5 6.5 6.5 6.5 6.5 6.5 6.5 6.5 6.5 6.5 6.5 6.5 6.5 6.5 6.5 6.5 6.5 6.5 6.5 6.5 6.5 6.5 6.5 6.5 6.5 6.5 3.2 4.9 5.0 6.2 7.0 6.5
0.6 -1.1 -1.0 -1.8 -1.4 -1.8 2.2 6.5 6.5 6.5 6.5 6.5 6.5 6.5 6.5 6.5 6.5 6.5 6.5 6.5 6.5 6.5 6.5 6.5 6.5 6.5 6.5 6.6 6.5 6.5 6.5 6.5 6.5 6.5 6.5 6.5 6.5 6.5 6.5 6.5 5.5 5.1 7.0 6.4 7.0
-1.4 -0.0 0.2 -2.0 -1.6 -1.3 5.1 6.5 6.5 6.5 6.5 6.5 6.5 6.5 6.5 6.5 6.5 6.5 6.5 6.5 6.5 6.5 6.2 6.5 6.5 6.5 6.5 6.5 6.4 6.5 6.5 6.5 6.5 6.5 6.5 6.5 6.5 6.5 6.5 6.5 6.5 5.9 5.5 5.2 6.8
-1.4 2.2 1.5 -2.0 -1.7 -0.2 6.5 6.5 6.5 6.3 6.3 6.5 6.5 6.5 6.5 6.5 6.5 6.5 6.5 6.5 6.5 6.5 6.4 6.5 6.5 6.5 6.5 6.5 6.5 6.5 6.5 6.5 6.5 6.5 6.5 6.5 6.5 6.5 6.5 6.5 6.5 5.3 6.0 6.5 7.0
-0.8 5.5 -0.2 -1.8 2.6 5.0 6.5 6.5 6.9 6.5 5.5 6.3 6.2 6.5 6.5 6.5 6.5 6.5 6.5 6.5 6.2 6.4 6.5 6.5 6.5 6.5 6.5 6.5 6.4 6.5 6.5 6.5 6.5 6.5 6.5 6.5 6.5 6.5 6.1 4.6 5.6 6.5 7.0 7.5 7.9
0.2 0.1 -0.7 -0.7 6.5 6.5 6.5 6.5 6.3 6.5 6.5 6.5 6.5 6.5 6.5 6.5 6.5 6.5 6.5 6.6 5.8 6.4 6.5 6.5 6.5 6.5 6.5 6.5 6.5 6.5 6.5 6.5 6.5 6.5 6.5 6.5 6.5 6.3 5.6 6.7 6.9 6.9 7.3 7.6 8.0
0.3 6.5 1.4 -0.7 3.1 6.2 6.5 6.5 6.5 6.4 6.4 6.4 6.5 6.4 6.5 6.5 6.5 6.5 6.5 6.6 6.3 6.2 7.3 6.4 6.5 6.5 6.5 6.5 6.5 6.5 6.5 6.5 6.5 6.5 6.5 6.5 6.5 6.5 6.5 6.5 6.9 7.1 7.4 7.6 7.8
-1.9 4.7 4.3 6.5 5.9 5.7 6.1 6.5 6.5 6.5 6.4 6.3 6.5 6.5 6.5 6.5 6.5 6.5 6.5 6.5 6.5 6.6 6.1 6.3 6.5 6.5 6.5 6.5 6.5 6.5 6.5 6.5 6.5 6.5 6.5 6.5 6.5 6.5 6.5 6.5 6.9 7.3 7.6 7.8 7.8
0.8 1.9 2.3 4.4 5.4 6.3 6.4 6.5 6.5 6.5 6.5 6.5 6.5 6.5 6.5 6.5 6.5 6.5 6.5 6.5 6.5 6.4 6.5 6.3 6.5 6.5 6.5 6.5 6.5 6.5 6.5 6.5 6.5 6.5 6.5 6.5 6.5 6.6 6.8 7.1 7.1 7.2 7.5 7.6 7.8
-3.6 -1.1 1.4 6.0 5.8 6.4 6.5 6.5 6.5 6.2 6.5 6.4 6.2 6.4 6.5 6.5 6.1 5.8 5.3 5.1 6.2 6.5 6.5 6.5 6.5 6.5 6.5 6.5 6.5 6.5 6.5 6.5 6.5 6.5 6.5 6.5 6.5 6.7 6.6 6.9 7.1 7.4 7.6 7.5 7.9
Wind_Speed
19 18 18 17 17 16 16 15 14 13 11 9 9 7 6 7 4 4 14 11 10 14 7 2 4 3 3 3 3 2 3 0 1 2 2 5 7 5 3 14 12 19 22 20 22
19 19 18 17 17 16 15 15 15 13 10 10 7 6 6 7 3 17 14 18 15 10 5 5 2 2 3 2 2 3 3 6 3 1 3 2 2 6 5 17 13 22 24 26 26
20 20 19 18 18 17 15 14 13 11 10 9 7 5 5 4 5 6 25 21 15 10 1 1 1 2 3 2 2 2 4 3 2 4 4 3 13 11 7 14 14 18 21 23 25
21 20 20 18 17 15 14 14 12 9 9 9 6 4 3 2 3 5 27 22 14 10 4 4 5 3 3 3 3 2 4 3 8 7 4 1 5 17 21 8 13 14 17 21 25
22 21 20 19 18 16 14 13 9 7 7 7 5 3 2 7 4 15 25 15 7 5 6 4 6 3 3 2 2 2 3 7 10 7 15 13 17 12 23 15 15 16 21 23 22
21 20 19 19 18 17 15 11 5 4 5 6 6 2 5 8 9 22 16 5 6 4 6 6 3 2 4 3 3 2 8 8 10 13 10 10 14 3 20 16 18 20 21 22 24
22 21 20 20 19 20 16 6 1 3 4 5 5 4 14 6 5 18 16 2 4 1 3 3 2 5 1 2 5 1 2 5 15 15 5 2 10 14 15 14 17 18 19 20 23
23 21 21 21 20 21 13 6 4 2 3 4 4 5 6 3 7 23 17 5 9 6 3 7 8 7 5 4 4 4 4 1 7 13 7 7 4 12 14 14 18 19 18 18 21
24 23 23 21 20 19 10 7 4 4 5 5 6 6 4 9 9 12 8 6 5 5 10 10 7 5 9 4 3 8 2 4 3 10 9 9 4 12 14 16 17 17 17 17 17
23 21 22 22 20 19 7 4 12 5 7 4 4 6 6 5 6 9 7 7 6 4 6 11 7 5 8 8 2 4 3 3 4 7 10 5 7 11 14 16 15 15 16 17 17
23 21 22 21 15 13 4 3 5 7 11 7 4 5 3 7 6 15 10 8 7 9 5 6 12 8 5 4 1 1 2 1 3 1 5 5 7 10 12 16 18 19 20 19 18
23 21 21 19 9 10 5 5 2 4 8 6 7 6 5 2 8 23 15 7 9 7 3 7 7 3 5 7 3 2 2 2 9 2 5 8 8 6 11 12 12 14 15 18 20
21 20 20 15 3 7 6 3 4 2 6 5 5 5 4 6 5 14 9 4 5 13 13 8 2 2 2 8 8 1 2 3 6 5 7 7 4 3 3 9 11 13 12 13 14
20 18 18 11 6 1 3 6 2 1 4 9 7 7 8 2 5 7 6 2 6 3 5 8 4 5 4 6 5 3 5 9 10 6 2 3 3 1 4 7 14 14 13 14 16
20 17 12 15 5 3 3 6 1 2 3 6 5 2 6 8 5 15 6 7 6 8 2 1 3 8 5 6 5 3 13 10 10 4 2 2 2 1 3 8 14 12 12 12 12
17 14 8 6 3 1 6 2 2 5 3 2 3 6 5 7 5 7 8 8 3 5 7 2 1 3 4 9 1 11 6 1 2 2 1 2 2 2 1 3 7 9 13 15 15
12 7 7 2 1 8 3 3 4 5 3 4 4 5 5 7 5 7 8 10 6 5 7 5 3 1 4 5 4 12 6 4 3 3 2 1 2 4 3 3 3 9 14 13 14
7 3 6 6 5 1 3 4 5 2 1 1 3 2 5 6 4 6 3 4 6 5 3 4 3 5 7 3 3 4 3 2 3 3 4 4 4 4 6 3 5 6 11 16 14
1 2 3 8 4 2 4 6 2 2 2 4 1 4 4 4 3 4 4 2 3 4 3 5 3 4 3 2 3 4 3 1 2 3 3 3 2 3 1 6 10 11 15 15 16
2 2 2 15 2 4 6 4 2 2 2 0 2 3 4 5 4 4 3 2 2 1 1 1 4 2 4 2 3 3 2 1 1 3 4 4 4 3 3 7 10 12 14 14 16
3 3 2 9 3 7 4 3 3 2 1 3 2 2 2 1 1 2 2 1 1 4 1 3 2 4 1 3 0 2 2 2 2 2 2 4 5 5 5 4 8 11 13 15 15
2 3 3 3 5 3 3 3 3 1 5 3 4 2 2 2 1 1 2 2 1 1 1 2 3 3 4 3 3 2 4 3 1 5 2 1 5 4 5 5 6 13 16 16 17
2 1 3 3 4 2 2 3 3 1 3 2 2 2 1 2 1 2 2 2 3 2 1 2 1 3 4 1 3 2 3 2 2 2 4 3 5 3 3 8 11 17 17 17 18
3 3 4 5 2 6 5 3 3 2 3 4 3 3 2 1 1 2 1 1 2 1 6 2 2 4 4 8 3 6 4 3 2 2 3 5 7 13 11 15 18 18 18 18 17
4 1 1 2 4 5 4 3 3 2 2 2 3 3 2 1 1 1 1 3 0 4 2 3 2 3 6 8 4 4 2 5 5 3 4 5 13 12 10 14 16 16 17 17 17
3 4 3 2 0 3 3 2 4 2 1 1 3 2 2 2 4 4 2 2 2 2 2 2 2 3 4 3 5 3 3 2 5 3 8 10 16 8 14 15 16 18 19 17 18
0 2 4 1 1 2 2 4 3 7 2 3 4 3 1 3 2 3 3 2 1 3 1 0 1 2 4 3 2 1 3 1 2 6 6 7 4 11 17 18 16 19 17 17 20
Wind_Direction
5 2 1 358 355 352 350 349 347 345 344 346 354 356 4 353 341 38 39 359 355 351 350 313 49 23 50 77 68 135 66 76 279 134 61 14 18 322 335 18 46 9 21 3 9
3 1 359 356 354 350 349 349 349 353 356 357 354 2 9 353 69 55 1 352 349 356 22 38 30 33 61 77 33 83 119 203 190 177 50 32 356 323 45 39 5 7 13 15 17
2 360 357 355 354 353 352 351 354 1 6 14 22 24 14 348 66 338 344 344 346 349 313 318 341 52 74 61 14 159 179 176 76 76 36 11 74 34 17 42 21 7 5 14 21
1 359 357 354 353 350 348 351 355 8 16 31 41 34 21 31 77 294 338 336 348 4 34 21 25 47 60 65 352 61 52 25 18 9 21 332 63 76 48 33 14 24 23 25 27
359 357 354 351 348 346 344 346 354 5 13 14 13 4 48 49 30 318 330 342 8 26 44 34 43 41 67 39 11 36 54 55 11 22 27 71 44 98 36 21 23 30 34 31 26
357 355 351 348 345 344 342 337 347 8 15 15 34 115 70 78 306 333 332 5 21 31 27 42 72 76 88 67 58 328 75 59 13 8 58 64 35 41 7 14 30 31 34 31 29
357 353 351 349 347 348 348 358 68 57 28 17 13 104 72 145 23 352 7 15 346 55 77 42 40 70 1 75 346 37 127 39 13 343 27 29 32 25 1 23 30 31 29 32 25
355 352 349 349 349 353 358 49 85 59 6 358 39 74 87 17 335 20 350 342 360 28 63 20 72 84 43 304 39 50 67 53 7 7 328 342 108 29 19 32 34 30 24 30 24
354 352 350 350 345 355 2 39 44 27 -0 12 41 86 48 351 9 351 16 339 306 19 36 51 57 58 6 17 65 16 56 17 338 29 360 28 91 30 28 37 34 26 23 20 19
355 353 350 348 347 349 353 24 39 48 357 28 66 51 15 4 339 345 340 348 21 346 27 32 46 61 26 21 18 335 344 347 316 1 358 55 75 36 30 36 28 21 17 14 8
354 352 352 350 356 1 20 20 26 9 28 82 348 95 32 318 36 1 351 347 15 54 37 29 57 54 30 21 5 246 234 267 272 291 10 100 77 54 40 34 23 12 6 6 6
355 354 356 353 11 27 66 72 74 167 82 43 78 83 29 50 26 359 355 63 38 36 337 53 73 6 75 21 37 74 111 309 295 289 324 128 96 90 61 39 32 16 6 358 353
356 355 352 351 3 40 78 75 319 333 96 31 73 48 5 41 54 343 9 27 79 57 59 87 359 15 73 52 23 121 102 278 270 311 286 132 156 76 48 33 24 20 9 2 353
354 356 353 351 54 2 49 319 336 132 91 333 356 4 1 75 61 6 3 65 51 93 95 76 347 51 48 49 25 303 347 317 298 325 262 214 282 215 347 9 13 360 1 353 347
350 352 11 40 139 56 292 314 314 51 15 345 15 24 9 75 292 353 340 22 71 27 142 229 47 32 21 354 336 284 305 285 283 218 183 14 270 23 2 348 353 340 341 342 341
350 352 14 29 47 24 313 288 65 46 266 351 37 6 33 26 28 335 14 30 54 62 60 62 4 56 311 312 310 328 315 359 111 124 200 139 1 286 329 275 319 331 340 337 334
350 48 54 42 333 325 334 47 35 100 14 4 354 14 84 16 36 17 46 37 29 15 20 349 21 62 13 338 345 5 8 357 1 6 262 354 305 238 225 282 266 322 331 330 327
359 111 66 52 339 9 65 56 70 95 13 2 4 54 60 12 35 15 42 40 23 29 43 29 338 23 352 58 301 335 41 102 259 299 287 329 233 283 194 239 272 324 322 329 331
30 17 49 344 1 54 73 52 43 32 337 342 341 58 21 12 46 62 47 65 24 0 49 10 273 331 354 4 20 341 31 143 230 227 268 285 272 317 200 337 352 329 333 332 332
83 59 6 336 42 69 71 111 116 53 352 340 71 36 23 346 37 51 31 332 355 62 172 152 293 309 332 55 43 66 343 57 6 303 286 300 282 251 311 312 316 317 326 327 326
48 50 301 356 54 49 87 110 133 83 152 35 135 100 127 58 90 37 8 317 339 329 80 138 134 293 356 32 201 360 10 9 246 232 267 301 272 210 204 257 291 299 320 326 325
72 23 324 26 46 45 80 96 112 73 39 70 91 94 105 140 111 141 171 198 225 255 0 215 168 262 248 328 99 126 177 148 169 292 254 237 274 189 209 278 299 327 327 327 326
69 291 333 66 90 79 105 81 74 80 45 84 97 44 132 145 197 169 187 124 36 39 234 197 326 339 356 64 4 192 187 192 242 199 234 252 268 194 261 328 334 330 327 327 323
87 4 356 40 52 118 135 130 124 41 74 70 104 74 73 142 36 180 214 200 341 317 33 161 174 166 196 239 236 265 198 186 212 246 273 244 289 310 344 338 334 327 324 323 321
27 109 163 19 15 99 100 125 124 126 60 51 100 91 125 199 292 219 227 322 128 356 41 89 234 194 258 268 265 258 240 191 207 230 252 275 293 315 328 325 321 315 318 321 320
122 133 43 90 126 90 20 116 142 140 124 79 118 128 145 200 198 223 160 201 235 20 49 357 270 355 285 287 234 251 151 212 235 280 265 284 296 1 327 319 324 321 323 322 321
336 52 102 346 63 103 161 154 140 128 55 93 142 119 187 218 207 225 208 198 183 125 321 32 29 16 267 305 334 8 201 256 275 282 287 286 320 330 321 322 320 317 315 318 317